TimePDT,TemperatureF,Dew PointF,Humidity,Sea Level PressureIn,VisibilityMPH,Wind Direction,Wind SpeedMPH,Gust SpeedMPH,PrecipitationIn,Events,Conditions,WindDirDegrees,DateUTC
12:54 AM,64.9,36.0,34,29.94,10.0,NNW,11.5,-,N/A,,Clear,340,2013-10-02 07:54:00
1:54 AM,64.0,36.0,35,29.94,10.0,NNW,11.5,-,N/A,,Clear,340,2013-10-02 08:54:00
2:54 AM,63.0,36.0,37,29.94,10.0,NNW,9.2,-,N/A,,Clear,340,2013-10-02 09:54:00
3:54 AM,63.0,36.0,37,29.92,10.0,NNW,9.2,-,N/A,,Clear,340,2013-10-02 10:54:00
4:54 AM,62.1,37.0,39,29.92,10.0,NNW,8.1,-,N/A,,Clear,340,2013-10-02 11:54:00
5:54 AM,60.1,37.9,44,29.93,10.0,NNW,6.9,-,N/A,,Clear,330,2013-10-02 12:54:00
6:54 AM,57.0,39.0,51,29.95,10.0,NNW,6.9,-,N/A,,Clear,340,2013-10-02 13:54:00
7:54 AM,55.9,39.9,55,29.96,10.0,North,4.6,-,N/A,,Clear,360,2013-10-02 14:54:00
8:54 AM,63.0,39.9,43,29.97,10.0,North,8.1,-,N/A,,Clear,10,2013-10-02 15:54:00
9:54 AM,66.9,37.9,34,29.98,10.0,North,9.2,-,N/A,,Clear,10,2013-10-02 16:54:00
10:54 AM,70.0,37.0,30,29.98,10.0,North,9.2,-,N/A,,Clear,350,2013-10-02 17:54:00
11:54 AM,73.0,35.1,25,29.97,10.0,North,5.8,-,N/A,,Clear,10,2013-10-02 18:54:00
12:54 PM,75.0,34.0,22,29.94,10.0,North,6.9,-,N/A,,Clear,350,2013-10-02 19:54:00
1:54 PM,77.0,32.0,19,29.92,10.0,NE,3.5,-,N/A,,Clear,50,2013-10-02 20:54:00
2:54 PM,79.0,27.0,15,29.90,10.0,Variable,4.6,-,N/A,,Clear,0,2013-10-02 21:54:00
3:54 PM,81.0,14.0,8,29.90,10.0,NW,9.2,-,N/A,,Clear,310,2013-10-02 22:54:00
4:54 PM,77.0,21.0,12,29.91,10.0,NW,13.8,23.0,N/A,,Clear,320,2013-10-02 23:54:00
5:54 PM,73.0,21.9,15,29.90,10.0,WNW,25.3,33.4,N/A,,Clear,300,2013-10-03 00:54:00
6:54 PM,70.0,24.1,18,29.94,10.0,WNW,18.4,29.9,N/A,,Clear,300,2013-10-03 01:54:00
7:54 PM,66.0,30.0,26,29.97,10.0,WNW,18.4,27.6,N/A,,Clear,300,2013-10-03 02:54:00
8:54 PM,64.0,34.0,33,29.99,10.0,NW,17.3,25.3,N/A,,Clear,310,2013-10-03 03:54:00
9:54 PM,62.1,35.1,37,30.01,10.0,NW,12.7,21.9,N/A,,Clear,310,2013-10-03 04:54:00
10:54 PM,61.0,35.1,38,30.03,10.0,NW,13.8,-,N/A,,Clear,310,2013-10-03 05:54:00
11:54 PM,59.0,35.1,41,30.04,10.0,NW,11.5,-,N/A,,Clear,310,2013-10-03 06:54:00